When you browse on this site, cookies collect data to enhance your experience and personalize the content and advertising you see.
Visit our Privacy Policy to learn more. By continuing to use the site, you agree to this use of cookies and data.
  • In Austria
  • List of Countries
  • For 7 days
  • Water Temperature
  • Weather Map
  • News
  • Weather Widgets
  • user-avatar
    Login

    Hourly Weather Cochabamba

    Today, 19 February, Wednesday

    Time Temperature Precipitation Wind Pressure Humidity
    00:00 +16°C° 0.1 mm 1 mps 555 mmHg 80%
    01:00 +16°C° 0.1 mm 1 mps 555 mmHg 83%
    02:00 +16°C° 0.1 mm 1 mps 555 mmHg 85%
    03:00 +14°C° 0.2 mm 0 mps 555 mmHg 86%
    04:00 +14°C° 0.2 mm 0 mps 554 mmHg 86%
    05:00 +14°C° 0.2 mm 0 mps 554 mmHg 87%
    06:00 +15°C° 0 mm 0 mps 555 mmHg 83%
    07:00 +16°C° 0 mm 1 mps 555 mmHg 79%
    08:00 +18°C° 0 mm 1 mps 556 mmHg 75%
    09:00 +20°C° 0 mm 1 mps 557 mmHg 71%
    10:00 +21°C° 0 mm 1 mps 557 mmHg 67%
    11:00 +22°C° 0 mm 1 mps 557 mmHg 63%
    12:00 +23°C° 0.2 mm 1 mps 557 mmHg 61%
    13:00 +24°C° 0.2 mm 1 mps 557 mmHg 59%
    14:00 +25°C° 0.2 mm 1 mps 556 mmHg 57%
    15:00 +25°C° 0.2 mm 2 mps 556 mmHg 57%
    16:00 +25°C° 0.2 mm 2 mps 555 mmHg 57%
    17:00 +25°C° 0.2 mm 2 mps 554 mmHg 58%
    18:00 +23°C° 0.1 mm 2 mps 554 mmHg 65%
    19:00 +21°C° 0.1 mm 2 mps 554 mmHg 71%
    20:00 +19°C° 0.1 mm 3 mps 553 mmHg 78%
    21:00 +18°C° 0.7 mm 2 mps 554 mmHg 81%
    22:00 +18°C° 0.7 mm 2 mps 554 mmHg 83%
    23:00 +18°C° 0.7 mm 2 mps 554 mmHg 86%

    Tomorrow, 20 February, Thursday

    Time Temperature Precipitation Wind Pressure Humidity
    00:00 +17°C° 0.6 mm 2 mps 554 mmHg 85%
    01:00 +17°C° 0.6 mm 2 mps 554 mmHg 85%
    02:00 +17°C° 0.6 mm 2 mps 553 mmHg 84%
    03:00 +17°C° 0.6 mm 2 mps 553 mmHg 84%
    04:00 +16°C° 0.6 mm 1 mps 553 mmHg 84%
    05:00 +16°C° 0.6 mm 1 mps 553 mmHg 84%
    06:00 +18°C° 0.3 mm 1 mps 554 mmHg 80%
    07:00 +18°C° 0.3 mm 1 mps 555 mmHg 76%
    08:00 +19°C° 0.3 mm 1 mps 555 mmHg 73%
    09:00 +20°C° 0.7 mm 1 mps 556 mmHg 71%
    10:00 +20°C° 0.7 mm 2 mps 557 mmHg 70%
    11:00 +20°C° 0.7 mm 2 mps 558 mmHg 68%
    12:00 +20°C° 1.6 mm 2 mps 557 mmHg 72%
    13:00 +20°C° 1.6 mm 1 mps 556 mmHg 76%
    14:00 +19°C° 1.6 mm 1 mps 555 mmHg 80%
    15:00 +19°C° 2.6 mm 1 mps 554 mmHg 81%
    16:00 +18°C° 2.6 mm 1 mps 554 mmHg 83%
    17:00 +18°C° 2.6 mm 1 mps 553 mmHg 84%
    18:00 +16°C° 0.4 mm 1 mps 553 mmHg 86%
    19:00 +16°C° 0.4 mm 1 mps 553 mmHg 88%
    20:00 +15°C° 0.4 mm 1 mps 553 mmHg 90%
    21:00 +14°C° 0 mm 0 mps 553 mmHg 91%
    22:00 +14°C° 0 mm 0 mps 554 mmHg 92%
    23:00 +13°C° 0 mm 0 mps 554 mmHg 92%

    Day after tomorrow, 21 February, Friday

    Time Temperature Precipitation Wind Pressure Humidity
    00:00 +14°C° 0.2 mm 0 mps 554 mmHg 92%
    01:00 +14°C° 0.2 mm 0 mps 554 mmHg 91%
    02:00 +15°C° 0.2 mm 1 mps 554 mmHg 90%
    09:00 +15°C° 1 mm 1 mps 555 mmHg 92%
    10:00 +15°C° 1 mm 1 mps 555 mmHg 91%
    11:00 +16°C° 1 mm 2 mps 555 mmHg 90%
    12:00 +15°C° 1.8 mm 2 mps 555 mmHg 90%
    13:00 +15°C° 1.8 mm 1 mps 554 mmHg 90%
    14:00 +15°C° 1.8 mm 1 mps 554 mmHg 89%
    15:00 +15°C° 0.4 mm 1 mps 554 mmHg 89%
    16:00 +15°C° 0.4 mm 2 mps 554 mmHg 89%
    17:00 +15°C° 0.4 mm 2 mps 553 mmHg 89%
    18:00 +15°C° 0.2 mm 2 mps 554 mmHg 90%
    19:00 +15°C° 0.2 mm 2 mps 554 mmHg 91%
    20:00 +14°C° 0.2 mm 1 mps 554 mmHg 93%
    21:00 +14°C° 0.2 mm 1 mps 555 mmHg 93%
    22:00 +14°C° 0.2 mm 1 mps 555 mmHg 93%
    23:00 +14°C° 0.2 mm 1 mps 556 mmHg 94%

    22 February, Saturday

    Time Temperature Precipitation Wind Pressure Humidity
    00:00 +14°C° 0.3 mm 1 mps 555 mmHg 94%
    01:00 +14°C° 0.3 mm 1 mps 555 mmHg 94%
    02:00 +14°C° 0.3 mm 1 mps 554 mmHg 94%
    03:00 +14°C° 0.5 mm 1 mps 554 mmHg 94%
    04:00 +14°C° 0.5 mm 1 mps 554 mmHg 94%
    05:00 +14°C° 0.5 mm 1 mps 554 mmHg 94%
    06:00 +14°C° 0.3 mm 1 mps 555 mmHg 94%
    07:00 +14°C° 0.3 mm 1 mps 555 mmHg 93%
    08:00 +14°C° 0.3 mm 2 mps 555 mmHg 93%
    09:00 +14°C° 0.3 mm 1 mps 556 mmHg 91%
    10:00 +15°C° 0.3 mm 1 mps 556 mmHg 90%
    11:00 +15°C° 0.3 mm 1 mps 556 mmHg 88%
    12:00 +16°C° 0.2 mm 1 mps 555 mmHg 86%
    13:00 +16°C° 0.2 mm 1 mps 555 mmHg 84%
    14:00 +16°C° 0.2 mm 1 mps 555 mmHg 83%
    15:00 +18°C° 0.2 mm 1 mps 555 mmHg 80%
    16:00 +18°C° 0.2 mm 1 mps 554 mmHg 78%
    17:00 +19°C° 0.2 mm 1 mps 554 mmHg 75%
    18:00 +18°C° 0.1 mm 1 mps 554 mmHg 80%
    19:00 +16°C° 0.1 mm 1 mps 554 mmHg 85%
    20:00 +15°C° 0.1 mm 1 mps 554 mmHg 89%
    21:00 +15°C° 0.2 mm 1 mps 555 mmHg 90%
    22:00 +15°C° 0.2 mm 1 mps 555 mmHg 90%
    23:00 +15°C° 0.2 mm 1 mps 555 mmHg 90%

    23 February, Sunday

    Time Temperature Precipitation Wind Pressure Humidity
    00:00 +15°C° 0.2 mm 1 mps 555 mmHg 90%
    01:00 +14°C° 0.2 mm 0 mps 554 mmHg 90%
    02:00 +13°C° 0.2 mm 0 mps 554 mmHg 90%
    03:00 +13°C° 0 mm 0 mps 554 mmHg 91%
    04:00 +13°C° 0 mm 0 mps 553 mmHg 92%
    05:00 +12°C° 0 mm 0 mps 553 mmHg 94%
    06:00 +13°C° 0 mm 0 mps 554 mmHg 90%
    07:00 +13°C° 0 mm 0 mps 554 mmHg 87%
    08:00 +14°C° 0 mm 0 mps 555 mmHg 84%
    09:00 +16°C° 0 mm 1 mps 555 mmHg 79%
    10:00 +19°C° 0 mm 1 mps 556 mmHg 74%
    11:00 +20°C° 0 mm 1 mps 556 mmHg 68%
    12:00 +21°C° 0.2 mm 1 mps 556 mmHg 67%
    13:00 +21°C° 0.2 mm 2 mps 556 mmHg 65%
    14:00 +21°C° 0.2 mm 2 mps 556 mmHg 63%
    15:00 +21°C° 0.4 mm 2 mps 555 mmHg 65%
    16:00 +21°C° 0.4 mm 3 mps 554 mmHg 68%
    17:00 +20°C° 0.4 mm 3 mps 554 mmHg 70%
    18:00 +19°C° 0.2 mm 3 mps 553 mmHg 75%
    19:00 +18°C° 0.2 mm 2 mps 553 mmHg 80%
    20:00 +17°C° 0.2 mm 2 mps 553 mmHg 84%
    21:00 +16°C° 0.1 mm 2 mps 554 mmHg 86%
    22:00 +16°C° 0.1 mm 1 mps 554 mmHg 87%
    23:00 +16°C° 0.1 mm 1 mps 554 mmHg 88%

    24 February, Monday

    Time Temperature Precipitation Wind Pressure Humidity
    00:00 +16°C° 0 mm 1 mps 554 mmHg 88%
    01:00 +16°C° 0 mm 1 mps 554 mmHg 88%
    02:00 +16°C° 0 mm 1 mps 553 mmHg 88%
    03:00 +16°C° 0 mm 1 mps 553 mmHg 87%
    04:00 +16°C° 0 mm 1 mps 553 mmHg 87%
    05:00 +16°C° 0 mm 1 mps 553 mmHg 87%
    06:00 +16°C° 0 mm 1 mps 554 mmHg 85%
    07:00 +16°C° 0 mm 1 mps 554 mmHg 84%
    08:00 +16°C° 0 mm 1 mps 555 mmHg 82%
    09:00 +19°C° 0.2 mm 1 mps 555 mmHg 77%
    10:00 +20°C° 0.2 mm 1 mps 556 mmHg 72%
    11:00 +22°C° 0.2 mm 1 mps 556 mmHg 66%
    12:00 +21°C° 0.9 mm 2 mps 556 mmHg 65%
    13:00 +23°C° 0.9 mm 2 mps 556 mmHg 63%
    14:00 +23°C° 0.9 mm 2 mps 555 mmHg 62%
    15:00 +23°C° 0.3 mm 2 mps 555 mmHg 62%
    16:00 +23°C° 0.3 mm 2 mps 554 mmHg 62%
    17:00 +23°C° 0.3 mm 1 mps 554 mmHg 63%
    18:00 +22°C° 0.2 mm 1 mps 553 mmHg 69%
    19:00 +21°C° 0.2 mm 1 mps 553 mmHg 76%
    20:00 +20°C° 0.2 mm 1 mps 553 mmHg 82%
    21:00 +19°C° 0.4 mm 1 mps 553 mmHg 83%
    22:00 +17°C° 0.4 mm 2 mps 554 mmHg 85%
    23:00 +17°C° 0.4 mm 2 mps 554 mmHg 86%
    Show more